• In Moldova, Republic
  • List of Countries
  • For 7 days
  • Water Temperature
  • Satellite Maps
  • Weather Map
  • Weather Widgets
  • user-avatar
    Login

    Hourly Weather Jewłach

    Today, 20 September, Wednesday

    Time Temperature Precipitation Wind Pressure Humidity
    00:00 +26°C° 0.1 mm 2 mps 761 mmHg 50%
    01:00 +25°C° 0 mm 2 mps 761 mmHg 52%
    02:00 +25°C° 0 mm 1 mps 761 mmHg 53%
    03:00 +24°C° 0 mm 1 mps 761 mmHg 54%
    04:00 +24°C° 0 mm 1 mps 761 mmHg 53%
    05:00 +24°C° 0 mm 1 mps 761 mmHg 53%
    06:00 +24°C° 0 mm 1 mps 761 mmHg 53%
    07:00 +26°C° 0 mm 1 mps 761 mmHg 49%
    08:00 +28°C° 0 mm 2 mps 761 mmHg 45%
    09:00 +30°C° 0 mm 2 mps 761 mmHg 41%
    10:00 +31°C° 0 mm 2 mps 761 mmHg 36%
    11:00 +32°C° 0 mm 1 mps 760 mmHg 32%
    12:00 +34°C° 0 mm 1 mps 760 mmHg 28%
    13:00 +34°C° 0 mm 1 mps 759 mmHg 26%
    14:00 +36°C° 0 mm 2 mps 759 mmHg 24%
    15:00 +37°C° 0 mm 2 mps 759 mmHg 23%
    16:00 +35°C° 0 mm 2 mps 759 mmHg 25%
    17:00 +33°C° 0 mm 1 mps 759 mmHg 27%
    18:00 +31°C° 0 mm 1 mps 759 mmHg 30%
    19:00 +30°C° 0 mm 2 mps 759 mmHg 31%
    20:00 +29°C° 0 mm 2 mps 760 mmHg 33%
    21:00 +29°C° 0 mm 2 mps 760 mmHg 34%
    22:00 +28°C° 0 mm 2 mps 760 mmHg 36%
    23:00 +27°C° 0 mm 2 mps 760 mmHg 38%

    Tomorrow, 21 September, Thursday

    Time Temperature Precipitation Wind Pressure Humidity
    00:00 +26°C° 0 mm 2 mps 760 mmHg 41%
    01:00 +26°C° 0 mm 1 mps 760 mmHg 42%
    02:00 +25°C° 0 mm 1 mps 760 mmHg 43%
    03:00 +25°C° 0 mm 1 mps 760 mmHg 44%
    04:00 +25°C° 0 mm 1 mps 760 mmHg 44%
    05:00 +25°C° 0 mm 1 mps 760 mmHg 44%
    06:00 +24°C° 0 mm 1 mps 760 mmHg 44%
    07:00 +27°C° 0 mm 1 mps 760 mmHg 39%
    08:00 +29°C° 0 mm 1 mps 760 mmHg 34%
    09:00 +31°C° 0 mm 1 mps 760 mmHg 30%
    10:00 +32°C° 0 mm 1 mps 760 mmHg 27%
    11:00 +34°C° 0 mm 2 mps 759 mmHg 25%
    12:00 +36°C° 0 mm 2 mps 759 mmHg 22%
    13:00 +36°C° 0 mm 2 mps 758 mmHg 21%
    14:00 +37°C° 0 mm 3 mps 758 mmHg 20%
    15:00 +38°C° 0 mm 3 mps 758 mmHg 19%
    16:00 +36°C° 0 mm 3 mps 758 mmHg 21%
    17:00 +34°C° 0 mm 3 mps 758 mmHg 23%
    18:00 +33°C° 0 mm 3 mps 758 mmHg 25%
    19:00 +31°C° 0 mm 3 mps 758 mmHg 27%
    20:00 +30°C° 0 mm 3 mps 759 mmHg 30%
    21:00 +29°C° 0 mm 3 mps 760 mmHg 32%
    22:00 +28°C° 0 mm 3 mps 760 mmHg 35%
    23:00 +27°C° 0 mm 3 mps 760 mmHg 37%

    Day after tomorrow, 22 September, Friday

    Time Temperature Precipitation Wind Pressure Humidity
    00:00 +26°C° 0 mm 2 mps 760 mmHg 39%
    01:00 +26°C° 0 mm 2 mps 760 mmHg 41%
    02:00 +25°C° 0 mm 1 mps 759 mmHg 42%
    03:00 +24°C° 0 mm 1 mps 759 mmHg 44%
    04:00 +24°C° 0 mm 1 mps 759 mmHg 44%
    05:00 +24°C° 0 mm 1 mps 759 mmHg 44%
    06:00 +24°C° 0 mm 1 mps 760 mmHg 44%
    07:00 +26°C° 0 mm 1 mps 759 mmHg 39%
    08:00 +28°C° 0 mm 1 mps 759 mmHg 33%
    09:00 +30°C° 0 mm 1 mps 759 mmHg 27%
    10:00 +32°C° 0 mm 2 mps 759 mmHg 24%
    11:00 +34°C° 0 mm 2 mps 758 mmHg 21%
    12:00 +35°C° 0 mm 3 mps 758 mmHg 18%
    13:00 +36°C° 0 mm 3 mps 757 mmHg 18%
    14:00 +36°C° 0 mm 4 mps 757 mmHg 17%
    15:00 +37°C° 0 mm 4 mps 756 mmHg 16%
    16:00 +35°C° 0 mm 4 mps 757 mmHg 19%
    17:00 +34°C° 0 mm 3 mps 757 mmHg 22%
    18:00 +31°C° 0 mm 3 mps 757 mmHg 24%
    19:00 +30°C° 0 mm 3 mps 758 mmHg 26%
    20:00 +29°C° 0 mm 3 mps 758 mmHg 28%
    21:00 +28°C° 0 mm 3 mps 758 mmHg 30%
    22:00 +27°C° 0 mm 3 mps 759 mmHg 33%
    23:00 +26°C° 0 mm 2 mps 759 mmHg 35%

    23 September, Saturday

    Time Temperature Precipitation Wind Pressure Humidity
    00:00 +25°C° 0 mm 2 mps 759 mmHg 37%
    01:00 +25°C° 0 mm 1 mps 759 mmHg 37%
    02:00 +25°C° 0 mm 1 mps 759 mmHg 38%
    03:00 +24°C° 0 mm 1 mps 759 mmHg 38%
    04:00 +24°C° 0 mm 1 mps 759 mmHg 38%
    05:00 +24°C° 0 mm 1 mps 760 mmHg 38%
    06:00 +24°C° 0 mm 2 mps 760 mmHg 37%
    07:00 +26°C° 0 mm 2 mps 760 mmHg 33%
    08:00 +28°C° 0 mm 2 mps 760 mmHg 29%
    09:00 +30°C° 0 mm 2 mps 760 mmHg 25%
    10:00 +31°C° 0 mm 2 mps 760 mmHg 23%
    11:00 +32°C° 0 mm 2 mps 760 mmHg 21%
    12:00 +35°C° 0 mm 2 mps 759 mmHg 20%
    13:00 +35°C° 0 mm 2 mps 759 mmHg 19%
    14:00 +36°C° 0 mm 2 mps 759 mmHg 18%
    15:00 +36°C° 0 mm 3 mps 759 mmHg 17%
    16:00 +35°C° 0 mm 3 mps 760 mmHg 19%
    17:00 +32°C° 0 mm 2 mps 760 mmHg 21%
    18:00 +31°C° 0 mm 2 mps 761 mmHg 24%
    19:00 +30°C° 0 mm 2 mps 761 mmHg 26%
    20:00 +29°C° 0 mm 3 mps 762 mmHg 29%
    21:00 +28°C° 0 mm 3 mps 762 mmHg 31%
    22:00 +27°C° 0 mm 2 mps 762 mmHg 33%
    23:00 +26°C° 0 mm 2 mps 763 mmHg 35%

    24 September, Sunday

    Time Temperature Precipitation Wind Pressure Humidity
    00:00 +26°C° 0 mm 2 mps 763 mmHg 37%
    01:00 +25°C° 0 mm 1 mps 763 mmHg 37%
    02:00 +25°C° 0 mm 1 mps 763 mmHg 37%
    03:00 +24°C° 0 mm 1 mps 763 mmHg 38%
    04:00 +24°C° 0 mm 1 mps 763 mmHg 37%
    05:00 +24°C° 0 mm 1 mps 763 mmHg 36%
    06:00 +24°C° 0 mm 1 mps 764 mmHg 36%
    07:00 +26°C° 0 mm 1 mps 764 mmHg 31%
    08:00 +28°C° 0 mm 1 mps 764 mmHg 26%
    09:00 +30°C° 0 mm 1 mps 764 mmHg 22%
    10:00 +32°C° 0 mm 2 mps 763 mmHg 20%
    11:00 +34°C° 0 mm 3 mps 763 mmHg 17%
    12:00 +35°C° 0 mm 4 mps 763 mmHg 15%
    13:00 +36°C° 0 mm 4 mps 762 mmHg 15%
    14:00 +36°C° 0 mm 5 mps 762 mmHg 15%
    15:00 +37°C° 0 mm 5 mps 762 mmHg 15%
    16:00 +35°C° 0 mm 5 mps 762 mmHg 19%
    17:00 +33°C° 0 mm 5 mps 763 mmHg 22%
    18:00 +32°C° 0 mm 4 mps 763 mmHg 25%
    19:00 +29°C° 0 mm 4 mps 763 mmHg 29%
    20:00 +28°C° 0 mm 4 mps 764 mmHg 33%
    21:00 +27°C° 0 mm 4 mps 764 mmHg 37%
    22:00 +26°C° 0 mm 3 mps 764 mmHg 40%
    23:00 +25°C° 0 mm 3 mps 764 mmHg 43%

    25 September, Monday

    Time Temperature Precipitation Wind Pressure Humidity
    00:00 +24°C° 0 mm 2 mps 764 mmHg 45%
    01:00 +24°C° 0 mm 2 mps 764 mmHg 45%
    02:00 +24°C° 0 mm 2 mps 764 mmHg 45%
    03:00 +23°C° 0 mm 1 mps 764 mmHg 45%
    04:00 +23°C° 0 mm 1 mps 764 mmHg 44%
    05:00 +23°C° 0 mm 1 mps 764 mmHg 43%
    06:00 +22°C° 0 mm 1 mps 764 mmHg 42%
    07:00 +24°C° 0 mm 1 mps 764 mmHg 38%
    08:00 +27°C° 0 mm 1 mps 764 mmHg 34%
    09:00 +29°C° 0 mm 1 mps 764 mmHg 29%
    10:00 +30°C° 0 mm 2 mps 764 mmHg 28%
    11:00 +31°C° 0 mm 3 mps 764 mmHg 26%
    12:00 +33°C° 0 mm 3 mps 763 mmHg 24%
    13:00 +34°C° 0 mm 4 mps 763 mmHg 23%
    14:00 +34°C° 0 mm 4 mps 763 mmHg 23%
    15:00 +35°C° 0 mm 4 mps 763 mmHg 22%
    16:00 +33°C° 0 mm 4 mps 763 mmHg 24%
    17:00 +32°C° 0 mm 4 mps 763 mmHg 27%
    18:00 +29°C° 0 mm 4 mps 764 mmHg 29%
    19:00 +28°C° 0 mm 4 mps 764 mmHg 32%
    20:00 +26°C° 0 mm 4 mps 765 mmHg 35%
    21:00 +25°C° 0 mm 4 mps 765 mmHg 37%
    22:00 +23°C° 0 mm 4 mps 765 mmHg 40%
    23:00 +24°C° 0 mm 3 mps 765 mmHg 43%
    Show more